FW0150 Weather Reports


Display with metric or nautical units.
time (UTC)temp
F
wind
direction
speed
MPH
gust
MPH
rain 1hr
in
rain 24hr
in
rain mn
in
humidity
%
barometer
mb
20260506205703 58 226 5.0 7.0 0.00 0.11 0.11 90 1014.4
20260506204154 58 212 4.0 14.0 0.00 0.11 0.11 89 1014.3
20260506203656 58 173 8.0 17.0 0.00 0.11 0.11 89 1014.4
20260506202634 58 214 10.0 15.0 0.00 0.11 0.11 89 1014.3
20260506202129 58 214 6.0 13.0 0.00 0.11 0.11 89 1014.3
20260506201624 58 200 7.0 13.0 0.00 0.11 0.11 90 1014.3
20260506201123 58 261 6.0 14.0 0.00 0.11 0.11 90 1014.2
20260506200619 58 212 8.0 14.0 0.00 0.11 0.11 90 1014.1
20260506200109 58 228 5.0 12.0 0.00 0.11 0.11 89 1014.0
20260506195643 58 172 9.0 15.0 0.00 0.11 0.11 89 1013.9
20260506194101 58 221 5.0 11.0 0.00 0.11 0.11 89 1013.8
20260506193603 58 210 6.0 11.0 0.01 0.11 0.11 89 1013.8
20260506193053 58 199 8.0 14.0 0.01 0.11 0.11 89 1013.7
20260506192607 58 161 8.0 14.0 0.02 0.11 0.11 89 1013.6
20260506192043 58 221 10.0 14.0 0.02 0.11 0.11 89 1013.5
20260506191546 58 233 6.0 15.0 0.02 0.11 0.11 89 1013.6
20260506191048 58 210 9.0 15.0 0.02 0.11 0.11 89 1013.5
20260506190545 58 210 7.0 14.0 0.02 0.11 0.11 89 1013.6
20260506190036 58 195 7.0 13.0 0.02 0.09 0.11 89 1013.6
20260506185541 58 238 7.0 13.0 0.02 0.09 0.11 89 1013.5
20260506185031 58 155 8.0 11.0 0.02 0.09 0.11 89 1013.4
20260506184509 58 175 7.0 12.0 0.02 0.09 0.11 89 1013.4
20260506184001 58 213 8.0 12.0 0.02 0.09 0.10 88 1013.4
20260506183442 59 207 5.0 11.0 0.02 0.09 0.10 88 1013.5
20260506182425 59 189 6.0 12.0 0.00 0.09 0.09 86 1013.3
20260506181421 60 182 7.0 15.0 0.00 0.09 0.09 85 1013.3
20260506180914 59 219 10.0 16.0 0.00 0.09 0.09 85 1013.3
20260506180414 60 158 11.0 19.0 0.00 0.09 0.09 85 1013.4
20260506175912 60 217 11.0 20.0 0.00 0.09 0.09 85 1013.3
20260506174854 60 180 10.0 19.0 0.00 0.09 0.09 85 1013.3
20260506174349 60 199 14.0 18.0 0.00 0.09 0.09 84 1013.3
20260506173845 60 230 11.0 16.0 0.00 0.09 0.09 84 1013.4
20260506173342 60 203 9.0 15.0 0.00 0.09 0.09 84 1013.4
20260506172846 60 203 7.0 18.0 0.00 0.09 0.09 84 1013.4
20260506172343 60 223 7.0 18.0 0.00 0.09 0.09 84 1013.3
20260506171833 60 227 8.0 15.0 0.00 0.09 0.09 84 1013.3
20260506171348 60 166 9.0 15.0 0.00 0.09 0.09 84 1013.3
20260506165335 60 197 12.0 21.0 0.00 0.09 0.09 84 1013.2
20260506164832 60 207 16.0 21.0 0.00 0.09 0.09 83 1013.1
20260506164329 60 204 8.0 17.0 0.00 0.09 0.09 85 1013.2
20260506163823 60 227 11.0 17.0 0.00 0.09 0.09 85 1013.2
20260506163318 60 224 10.0 16.0 0.00 0.09 0.09 85 1013.2
20260506162312 60 200 14.0 23.0 0.00 0.09 0.09 85 1013.3
20260506161811 61 175 11.0 17.0 0.00 0.09 0.09 85 1013.3
20260506161312 61 200 8.0 13.0 0.00 0.09 0.09 85 1013.2
20260506160812 61 186 9.0 17.0 0.00 0.09 0.09 85 1013.3
20260506155746 61 162 13.0 19.0 0.00 0.09 0.09 85 1013.4
20260506155252 61 193 10.0 19.0 0.00 0.09 0.09 85 1013.3
20260506154744 62 49 11.0 18.0 0.00 0.09 0.09 84 1013.3
20260506154244 62 195 12.0 18.0 0.00 0.09 0.09 85 1013.3
20260506153740 62 207 9.0 16.0 0.00 0.09 0.09 85 1013.2
20260506153232 62 206 7.0 16.0 0.00 0.09 0.09 86 1013.3
20260506152727 61 171 9.0 15.0 0.00 0.09 0.09 86 1013.3
20260506152229 61 221 9.0 18.0 0.00 0.09 0.09 86 1013.3
20260506151724 61 213 10.0 18.0 0.00 0.09 0.09 86 1013.4
20260506151212 61 223 9.0 17.0 0.00 0.09 0.09 86 1013.4
20260506150212 61 197 11.0 16.0 0.00 0.09 0.09 86 1013.2
20260506145712 61 178 5.0 15.0 0.00 0.09 0.09 87 1013.3
20260506144211 60 197 12.0 20.0 0.04 0.09 0.09 87 1013.2
20260506143710 60 243 13.0 24.0 0.04 0.09 0.09 87 1013.4
20260506143210 60 148 16.0 24.0 0.04 0.09 0.09 86 1013.3
20260506142712 60 209 13.0 22.0 0.04 0.09 0.09 87 1013.3
20260506142210 60 210 13.0 21.0 0.04 0.09 0.09 88 1013.1
20260506141710 60 162 13.0 19.0 0.04 0.09 0.09 88 1013.3
20260506141213 60 261 11.0 20.0 0.04 0.09 0.09 88 1013.3
20260506140710 60 214 9.0 20.0 0.04 0.09 0.09 88 1013.3
20260506140211 60 244 6.0 14.0 0.04 0.09 0.09 88 1013.3
20260506135709 60 224 9.0 14.0 0.04 0.05 0.09 88 1013.3
20260506135210 60 176 4.0 17.0 0.04 0.05 0.09 87 1013.2
20260506134208 61 195 10.0 16.0 0.00 0.05 0.05 84 1013.3
20260506133715 61 233 8.0 16.0 0.00 0.05 0.05 84 1013.2
20260506133211 62 200 9.0 16.0 0.00 0.05 0.05 83 1013.3
20260506132712 62 217 9.0 16.0 0.00 0.06 0.05 84 1013.5
20260506132208 61 279 4.0 19.0 0.00 0.06 0.05 84 1013.4
20260506131208 61 234 14.0 23.0 0.00 0.06 0.05 80 1013.7
20260506130221 63 200 14.0 21.0 0.00 0.06 0.05 76 1013.7
20260506125708 63 213 13.0 23.0 0.00 0.06 0.05 75 1013.6
20260506125216 64 203 15.0 23.0 0.00 0.06 0.05 73 1013.6
20260506124708 64 133 12.0 29.0 0.00 0.06 0.05 72 1013.6
20260506124212 64 200 15.0 29.0 0.00 0.06 0.05 71 1013.6
20260506123707 65 262 18.0 28.0 0.00 0.06 0.05 69 1013.7
20260506123207 65 250 9.0 29.0 0.00 0.06 0.05 68 1013.6
20260506122721 65 216 15.0 29.0 0.00 0.06 0.05 69 1013.7
20260506122207 65 173 20.0 28.0 0.00 0.07 0.05 68 1013.7
20260506121706 64 243 18.0 29.0 0.00 0.07 0.05 68 1013.7
20260506121208 65 217 13.0 29.0 0.00 0.07 0.05 71 1013.6
20260506120708 64 199 12.0 26.0 0.00 0.08 0.05 69 1013.6
20260506120201 64 219 17.0 26.0 0.00 0.08 0.05 69 1013.6
20260506115154 65 217 11.0 24.0 0.00 0.08 0.05 68 1013.6
20260506114647 65 169 11.0 19.0 0.00 0.08 0.05 70 1013.6
20260506114139 64 207 8.0 31.0 0.00 0.08 0.05 70 1013.6
20260506113636 64 204 18.0 31.0 0.00 0.09 0.05 70 1013.7
20260506113137 64 200 13.0 24.0 0.00 0.09 0.05 70 1013.6
20260506112649 64 223 12.0 23.0 0.00 0.09 0.05 69 1013.6
20260506112135 64 197 17.0 23.0 0.00 0.09 0.05 68 1013.5
20260506111625 64 216 10.0 26.0 0.00 0.09 0.05 69 1013.4
20260506111122 64 227 14.0 28.0 0.00 0.09 0.05 71 1013.5
20260506110631 63 203 12.0 28.0 0.00 0.09 0.05 71 1013.6
20260506110128 63 221 20.0 30.0 0.00 0.09 0.05 72 1013.7
20260506105610 63 213 19.0 30.0 0.00 0.09 0.05 73 1013.7
20260506105107 63 171 12.0 28.0 0.00 0.09 0.05 71 1013.7
20260506104612 62 204 17.0 28.0 0.00 0.09 0.05 71 1013.8
20260506104106 63 228 15.0 23.0 0.00 0.10 0.05 71 1013.8
20260506103614 63 219 13.0 27.0 0.00 0.10 0.05 71 1013.8
20260506103103 63 231 13.0 27.0 0.00 0.11 0.05 71 1013.7
20260506102603 63 190 14.0 26.0 0.00 0.12 0.05 71 1013.7
20260506102108 63 192 14.0 26.0 0.00 0.12 0.05 71 1013.8
20260506101553 63 161 14.0 30.0 0.00 0.12 0.05 69 1013.8
20260506100551 63 210 16.0 27.0 0.00 0.12 0.05 70 1013.8
20260506095612 62 226 21.0 29.0 0.00 0.12 0.05 71 1013.9
20260506094543 62 180 14.0 20.0 0.00 0.13 0.05 74 1013.8
20260506094044 62 233 8.0 20.0 0.00 0.13 0.05 75 1013.7
20260506093536 62 226 8.0 19.0 0.00 0.13 0.05 75 1013.7
20260506093032 61 227 11.0 20.0 0.00 0.13 0.05 75 1013.7
20260506092541 61 162 13.0 20.0 0.00 0.13 0.05 76 1013.7
20260506092031 62 149 7.0 11.0 0.00 0.14 0.05 79 1013.8
20260506091604 62 123 4.0 13.0 0.00 0.15 0.05 81 1013.8
20260506090542 60 216 6.0 10.0 0.00 0.15 0.05 80 1014.0
20260506085506 60 231 5.0 12.0 0.00 0.17 0.05 82 1013.8
20260506084502 59 121 6.0 11.0 0.00 0.17 0.05 81 1013.8
20260506084008 59 157 6.0 10.0 0.00 0.18 0.05 81 1013.9
20260506083001 59 152 5.0 9.0 0.00 0.18 0.05 83 1013.8
20260506082509 59 118 5.0 9.0 0.00 0.18 0.05 83 1013.7
20260506081505 58 159 7.0 15.0 0.00 0.18 0.05 83 1013.8
20260506080958 59 159 5.0 11.0 0.00 0.18 0.05 83 1013.6
20260506080454 59 125 4.0 10.0 0.00 0.18 0.05 85 1013.6
20260506073447 58 130 5.0 9.0 0.00 0.19 0.05 86 1013.6
20260506072939 57 145 3.0 6.0 0.00 0.19 0.05 88 1013.6
20260506071938 56 161 6.0 9.0 0.00 0.19 0.05 88 1013.5
20260506071439 56 157 5.0 9.0 0.00 0.19 0.05 88 1013.6
20260506070934 56 190 5.0 7.0 0.00 0.19 0.05 89 1013.7
20260506070436 56 162 4.0 7.0 0.00 0.19 0.05 88 1013.7
20260506062409 54 172 6.0 14.0 0.00 0.20 0.05 91 1013.6
20260506061907 54 171 5.0 11.0 0.00 0.20 0.05 91 1013.6
20260506060909 54 151 7.0 12.0 0.00 0.20 0.05 91 1013.7
20260506060402 54 164 6.0 12.0 0.00 0.20 0.05 91 1013.6
20260506050858 54 145 10.0 18.0 0.00 0.24 0.05 91 1013.6
20260506050347 54 148 11.0 18.0 0.00 0.24 0.05 91 1013.5
20260506044837 54 155 9.0 17.0 0.00 0.24 0.05 90 1013.4
20260506044334 54 121 9.0 16.0 0.00 0.24 0.05 90 1013.5
20260506043834 54 145 8.0 16.0 0.00 0.24 0.05 90 1013.4
20260506043335 54 183 10.0 15.0 0.00 0.24 0.05 90 1013.5
20260506042834 54 214 7.0 12.0 0.00 0.24 0.05 90 1013.6
20260506041825 55 206 6.0 13.0 0.00 0.24 0.05 89 1013.5
20260506041320 55 169 8.0 12.0 0.00 0.24 0.05 89 1013.4
20260506040823 55 165 5.0 11.0 0.00 0.24 0.05 88 1013.4
20260506040317 55 164 6.0 14.0 0.00 0.24 0.05 88 1013.4
20260506035306 55 165 7.0 11.0 0.00 0.24 0.05 88 1013.4
20260506034303 55 196 6.0 16.0 0.00 0.25 0.05 88 1013.6
20260506033756 55 182 8.0 21.0 0.00 0.25 0.05 88 1013.5
20260506033255 55 165 11.0 21.0 0.00 0.25 0.05 88 1013.4
20260506032805 55 207 12.0 18.0 0.00 0.25 0.05 88 1013.3
20260506032256 55 221 12.0 23.0 0.00 0.26 0.05 88 1013.3
20260506031758 55 219 13.0 23.0 0.00 0.26 0.05 87 1013.2
20260506031254 55 131 13.0 16.0 0.00 0.26 0.05 88 1013.4
20260506030753 55 227 11.0 17.0 0.00 0.26 0.05 88 1013.4
20260506030255 55 196 8.0 17.0 0.00 0.26 0.05 88 1013.4
20260506025754 55 204 10.0 18.0 0.01 0.25 0.05 88 1013.6
20260506025254 55 214 11.0 18.0 0.02 0.26 0.05 89 1013.6
20260506024754 56 210 11.0 18.0 0.04 0.26 0.05 89 1013.7
20260506023753 55 214 10.0 15.0 0.05 0.27 0.05 91 1013.8
20260506023255 55 207 10.0 14.0 0.05 0.27 0.05 92 1013.8
20260506022756 56 210 9.0 16.0 0.05 0.27 0.05 91 1013.8
20260506022255 56 212 10.0 16.0 0.05 0.27 0.05 91 1013.9
20260506021754 56 173 8.0 12.0 0.05 0.27 0.05 91 1014.0
20260506021252 56 161 5.0 11.0 0.05 0.27 0.05 91 1014.2
20260506020752 56 199 7.0 11.0 0.05 0.27 0.05 91 1014.3
20260506020254 56 144 5.0 13.0 0.05 0.27 0.05 90 1014.5
20260506015752 56 212 7.0 13.0 0.04 0.23 0.04 91 1014.4
20260506015256 56 189 5.0 13.0 0.02 0.23 0.02 91 1014.5
20260506014753 56 220 8.0 13.0 0.01 0.23 0.01 91 1014.6
20260506014252 56 226 6.0 10.0 0.00 0.24 0.00 91 1014.5
20260506013753 56 217 4.0 11.0 0.00 0.24 0.00 91 1014.4
20260506013254 56 231 4.0 11.0 0.00 0.24 0.00 91 1014.2
20260506012752 56 221 6.0 11.0 0.00 0.24 0.00 91 1014.2
20260506012252 56 157 4.0 7.0 0.00 0.24 0.00 91 1014.1
20260506011753 56 140 5.0 9.0 0.00 0.24 0.00 91 1014.1
20260506011251 56 226 6.0 12.0 0.00 0.24 0.00 91 1014.2
20260506005741 56 159 5.0 12.0 0.00 0.24 0.00 91 1014.1
20260506004735 56 135 6.0 7.0 0.00 0.24 0.00 91 1014.2
20260506004236 56 175 5.0 9.0 0.00 0.24 0.00 91 1014.2
20260506003235 56 183 6.0 12.0 0.00 0.24 0.00 91 1014.2
20260506002734 56 140 8.0 12.0 0.00 0.24 0.00 91 1014.3
20260506002235 56 149 6.0 10.0 0.00 0.24 0.00 91 1014.2
20260506001736 57 209 6.0 10.0 0.00 0.24 0.00 91 1014.3
20260506001217 57 145 4.0 10.0 0.00 0.24 0.00 91 1014.4
20260506000716 57 154 6.0 10.0 0.00 0.24 0.00 91 1014.5
20260506000216 57 155 4.0 11.0 0.00 0.24 0.00 90 1014.6
20260505235227 57 140 6.0 11.0 0.00 0.24 0.00 90 1014.5
20260505234214 57 182 6.0 12.0 0.00 0.24 0.00 90 1014.6
20260505233711 57 176 5.0 12.0 0.00 0.24 0.00 90 1014.6
20260505233213 57 200 6.0 12.0 0.00 0.24 0.00 90 1014.7
20260505232714 57 159 5.0 12.0 0.00 0.24 0.00 90 1014.6
20260505232210 57 134 7.0 12.0 0.00 0.24 0.00 90 1014.8
20260505231709 57 203 5.0 13.0 0.00 0.24 0.00 89 1014.7
20260505231207 57 180 6.0 15.0 0.00 0.24 0.00 89 1014.8
20260505230707 57 176 11.0 16.0 0.00 0.24 0.00 89 1014.9
20260505230206 58 179 12.0 18.0 0.00 0.24 0.00 88 1015.1
20260505225206 57 214 12.0 16.0 0.00 0.24 0.00 89 1015.2
20260505224706 57 219 11.0 17.0 0.00 0.24 0.00 89 1015.2
20260505224206 57 199 12.0 17.0 0.00 0.24 0.00 89 1015.2
20260505223709 58 228 10.0 15.0 0.00 0.24 0.00 89 1015.2
20260505223203 58 212 9.0 15.0 0.00 0.24 0.00 89 1015.3
20260505222658 58 227 9.0 17.0 0.00 0.24 0.00 89 1015.3
20260505221655 58 155 8.0 15.0 0.00 0.24 0.00 89 1015.4
20260505221155 58 230 10.0 18.0 0.00 0.24 0.00 89 1015.4
20260505220655 58 230 11.0 18.0 0.00 0.24 0.00 89 1015.5
20260505220228 58 197 12.0 18.0 0.00 0.24 0.00 89 1015.4
20260505215649 58 202 10.0 15.0 0.00 0.24 0.24 89 1015.5
20260505215148 58 165 8.0 15.0 0.00 0.24 0.24 89 1015.5
20260505214643 58 173 9.0 16.0 0.00 0.24 0.24 89 1015.6
20260505214138 58 199 9.0 18.0 0.00 0.24 0.24 89 1015.7
20260505213641 58 226 12.0 22.0 0.00 0.24 0.24 88 1015.7
20260505213136 58 224 10.0 22.0 0.00 0.24 0.24 89 1015.8
20260505212640 58 147 8.0 16.0 0.00 0.24 0.24 89 1015.8
20260505212136 58 185 13.0 16.0 0.00 0.24 0.24 89 1015.8
20260505211625 58 165 8.0 14.0 0.00 0.24 0.24 89 1015.8
20260505211121 58 230 9.0 15.0 0.00 0.24 0.24 89 1015.8
20260505210624 58 107 9.0 15.0 0.00 0.24 0.24 88 1015.8